FENGYUN 1C DEB, 36689

Orbit data source: Space-Track

FENGYUN 1C DEB, 36689 is space debris in SSO originally from a launch on Mon, 10 May 1999 UTC launched from the Taiyaun Space Center, China (TSC). Fengyun 1C debris stems from the Chinese weather satellite Fengyun-1C, which was intentionally destroyed by a Chinese anti-satellite missile in 2007. This event dramatically increased the amount of space debris, with thousands of trackable fragments posing hazards to satellites and human spaceflight. The Fengyun 1C debris cloud has become a focal point in discussions about space sustainability and the need for international regulations to prevent the creation of new debris.

Loading next visibility...
Identifier
36689, 1999-025DZK
Orbit
SSO
Country
Flag of CNCN / PRC
Related business
Manufacturer
Unknown
Mission
Spacecraft
Bus & Motor
Unknown
Mass
Unknown
Launch date (UTC)
1999-05-10 (27 years ago)
Launch vehicle
Unknown
Launch site
Taiyaun Space Center, China (TSC)
Object type
Payload
Rocket body
Debris
Shape & HBR
Unknown shape, 0.1 m
Radar Cross Section
Small (<0.1 m²)

Expand to show TLE details & history
Last TLE update: 1 month ago

TLE from 1 month ago
0 FENGYUN 1C DEB
1 36689U 99025DZK 26229.90269781  .00001116  00000-0  84503-3 0  9992
2 36689  98.4708 101.5602 0310151 347.5042  11.8544 13.75445936616239
Epoch: 2026-08-17T21:39Z
TLE epoch observation values (Epoch: 2026-08-17T21:39:53.090Z)
Latitude
-0.00005°
Longitude
170.3108°
Altitude
759.87 km
Speed
7.587 km/s
True Right ascension
06h 46m 14s
True Declination
0° 00' 00"
Sunlit
Object was in daylight at epoch
Visualization orbit readout
Latitude
Unknown
Longitude
Unknown
Altitude
Unknown
Speed
Unknown
Apparent Right ascension
Unknown
Apparent Declination
Unknown
Sunlit
N/A
Visualization observer readout
Local Sidereal Time
18:45:08
Azimuth
Unknown
Elevation
Unknown
Doppler factor
Unknown
Orbital elements
Apogee altitude
1,205.417 km
Perigee altitude
749.158 km
Semi-major axis
7,355.424 km
Eccentricity
0.03102
Inclination
98.4708°
RAAN
101.5602°
Arg. of periapsis
347.5042°
True anomaly
12.61322°
Mean anomaly
11.8544°
Eccentric anomaly
12.23087°
Mean motion
3.44058 °/min
Orbital period
104.63 mins
BSTAR
0.00084503
Loading maneuver chart data...
Computing Atmospheric mass density...
Loading historical data...
Loading historical data...
Loading historical data...
Loading historical data...
Loading historical data...
Loading historical data...
Loading historical data...

Documentation

Showing up to 5 results
|